Location: Vancouver
(49.2500°N, 123.1330°W)
Time: 04:47:13
(UTC-07:00)

Daily predictions for brighter satellites

Satellite Brightness Start Highest point End
(mag) Time Altitude Azimuth Time Altitude Azimuth Time Altitude Azimuth
SeaSat 1 2.4 00:03:05 25° SE 00:06:02 84° ENE 00:11:00 10° NNW
Cosmos 494 Rocket 4.3 00:01:55 10° NNW 00:07:10 62° ENE 00:10:23 23° SE
ASTEX 1 4.1 00:02:55 10° NNE 00:07:31 39° E 00:09:48 25° SE
Cosmos 1733 Rocket 4.0 00:07:44 26° SE 00:09:29 36° E 00:13:35 10° NNE
Cosmos 1626 4.4 00:06:59 10° WSW 00:09:53 21° WNW 00:12:47 10° NNW
Cosmos 1869 Rocket 3.8 00:07:59 22° SSW 00:10:50 69° W 00:15:19 10° N
H-2A R/B 3.8 00:07:47 10° SW 00:12:05 25° W 00:16:33 10° NW
CZ-4B R/B 2.4 00:11:03 27° ESE 00:12:19 38° ENE 00:15:28 10° N
CZ-4C R/B 2.9 00:05:27 10° NW 00:12:20 76° NE 00:18:45 16° SE
Cosmos 2237 Rocket 4.2 00:08:39 10° WNW 00:12:21 18° W 00:16:03 10° SW
Cosmos 389 Rocket 3.1 00:10:07 10° NNW 00:13:33 46° W 00:14:55 30° SSW
USA 234 4.3 00:07:41 10° ENE 00:13:52 47° N 00:20:04 10° WNW
Cosmos 1892 3.3 00:13:46 31° SE 00:14:54 40° E 00:18:29 10° NNE
Cosmos 2184 Rocket 4.0 00:13:18 24° S 00:17:11 74° E 00:23:22 10° NNE
NOSS 3-2 (C) 4.3 00:10:20 10° NW 00:17:34 64° NE 00:25:26 10° ESE
FALCON 9 R/B 3.9 00:06:43 10° W 00:20:40 28° SW 00:23:34 22° S
Cosmos 1867 4.3 00:15:50 10° NNW 00:21:11 50° NE 00:26:00 13° ESE
Coronas F rocket 2.7 00:21:48 26° E 00:21:48 26° E 00:24:03 10° NNE
NOSS 2-3 (C) 4.0 00:19:29 16° SW 00:23:36 80° SE 00:29:37 10° NE
Okean 1-7 3.8 00:19:52 10° NNW 00:23:56 42° W 00:26:02 24° SSW
Cosmos 44 Rocket 3.4 00:21:03 17° SSW 00:25:02 80° SE 00:30:19 10° NE
Cosmos 1125 Rocket 4.3 00:21:16 10° SW 00:26:26 50° WNW 00:31:37 10° NNE
ALOS 2 2.6 00:28:24 32° SSE 00:30:23 82° ENE 00:34:49 10° NNW
Terra 4.0 00:28:17 10° SW 00:31:13 16° W 00:34:09 10° NW
Cosmos 1825 4.2 00:32:13 15° ESE 00:33:15 17° E 00:35:47 10° NE
ERBS 4.0 00:30:33 10° W 00:33:50 37° NNW 00:37:06 10° NE
In-Cosmos 22 Rocket 4.4 00:34:45 22° SSW 00:38:33 71° WNW 00:44:23 10° N
GEOS 3 Rocket 3.6 00:36:03 26° SSE 00:39:05 78° SW 00:44:17 10° NW
NOSS 3-2 (A) 4.0 00:31:55 10° NW 00:39:17 87° NE 00:45:41 17° SE
Cosmos 372 Rocket 4.4 00:37:12 16° SW 00:41:20 60° WNW 00:46:32 10° NNE
Cosmos 2341 Rocket 4.5 00:38:55 25° SSE 00:42:27 50° E 00:48:34 10° NNE
Cosmos 2084 Rocket 3.0 00:41:51 35° SSW 00:43:22 74° SE 00:47:11 10° NE
NOSS 3-4 (A) 4.4 00:41:51 25° SSE 00:44:16 32° ESE 00:49:59 10° NE
NOSS 3-4 (C) 4.4 00:41:58 25° SSE 00:44:21 32° ESE 00:50:03 10° NE
NOSS 2-3 (D) 4.2 00:40:16 13° SW 00:44:53 80° NW 00:50:58 10° NE
Meteor 2-3 Rocket 3.9 00:41:36 22° SSW 00:45:20 69° WNW 00:51:03 10° N
Meteor 2-10 Rocket 3.9 00:42:13 10° NNW 00:47:47 66° W 00:50:50 28° S
Cosmos 807 4.4 00:45:13 10° N 00:48:25 80° E 00:49:24 45° SSE
Uosat 12 SS-18 rocket 4.1 00:46:20 25° SSW 00:49:10 79° SE 00:53:34 10° NE
Lacrosse 4 Rocket 3.8 00:49:33 10° W 00:51:22 12° WSW 00:52:45 11° WSW
Aureole 2 Rocket 4.0 00:49:09 10° NW 00:51:39 21° WSW 00:52:06 20° WSW
Cosmos 921 Rocket 3.1 00:50:38 37° SSE 00:52:00 57° ESE 00:56:10 10° NNE
Cosmos 1356 Rocket 3.3 00:52:52 39° S 00:54:16 78° E 00:58:24 10° NNE
Cosmos 1674 Rocket 3.6 00:50:27 10° NNW 00:54:53 73° W 00:56:40 35° S
Meteor 1-10 Rocket 4.4 00:49:14 10° NNW 00:55:09 72° W 00:58:21 28° S
Cosmos 2263 Rocket 3.2 00:53:10 24° SE 00:55:19 31° ESE 01:00:14 10° NE
Cosmos 2227 Rocket 4.3 00:51:35 10° W 00:56:10 25° NW 01:00:46 10° NNE
CZ-4C R/B 4.0 00:57:58 31° SW 00:58:53 37° W 01:02:18 10° NNW
Cosmos 1689 Rocket 2.6 00:58:17 47° SSW 00:58:55 57° W 01:02:11 10° NNW
ATLAS 5 CENTAUR R/B 4.4 00:59:35 10° NW 01:04:20 27° NNE 01:09:27 10° E
Cosmos 1975 Rocket 3.5 01:02:41 10° N 01:07:00 53° ENE 01:08:57 29° SE
BREEZE-M DEB (TANK) 4.4 00:46:14 10° SW 01:07:10 59° SSE 01:12:20 10° ENE
SL-16 R/B 4.3 01:04:23 10° WNW 01:07:18 14° W 01:10:02 10° SW
Cosmos 1782 3.2 01:05:19 10° NNW 01:09:11 52° W 01:10:27 36° SSW
CZ-2C R/B 3.0 01:05:42 10° NNE 01:10:47 50° E 01:13:07 29° SSE
Cosmos 1607 4.4 01:05:29 10° NW 01:11:14 43° WSW 01:13:53 28° SSW
ATLAS 2AS CENTAUR R/B 4.1 01:06:02 10° WSW 01:13:32 47° NNW 01:21:23 10° NE
MOS 1-B Rocket 3.8 01:12:40 29° SSE 01:15:44 84° WSW 01:21:25 10° NNW
Nadezhda 3 Rocket 4.2 01:10:11 10° NNW 01:16:20 64° W 01:19:47 27° SSW
Cosmos 1908 Rocket 3.5 01:16:24 38° S 01:18:03 81° E 01:22:26 10° NNE
Cosmos 1340 Rocket 3.7 01:16:19 25° SW 01:18:04 40° WNW 01:21:49 10° N
Cosmos 44 3.5 01:14:34 22° SW 01:18:06 86° NW 01:23:37 10° NE
ATLAS 3B R/B 4.5 01:14:58 10° WNW 01:18:18 14° WSW 01:21:03 11° SW
Okean 3 3.5 01:15:53 10° N 01:20:13 82° ENE 01:21:57 36° SSE
Cosmos 2297 Rocket 4.4 01:18:30 10° W 01:22:54 23° NW 01:27:18 10° N
COSMOS 2406 4.1 01:17:37 10° NNW 01:23:14 47° NE 01:28:46 10° SE
Landsat 5 4.5 01:24:08 29° SW 01:25:48 39° W 01:30:06 10° NNW
Geosat 4.2 01:22:46 10° NE 01:27:45 58° ESE 01:29:59 32° S
Cosmos 1943 3.5 01:23:40 10° NW 01:29:11 51° WSW 01:31:42 30° S
H-2A R/B 3.4 01:25:46 10° N 01:29:47 43° WNW 01:32:05 23° SW
Cosmos 1606 3.1 01:26:58 10° NNW 01:30:43 50° W 01:31:49 37° SW
Cosmos 1727 Rocket 4.4 01:26:09 10° N 01:32:19 59° ENE 01:36:29 21° SSE
Cosmos 1238 Rocket 3.1 01:30:50 10° NNW 01:34:35 44° W 01:35:22 37° SW
Helios 1A Rocket 3.2 01:33:30 10° N 01:37:39 62° WNW 01:39:27 31° SW
Cosmos 1184 Rocket 3.8 01:40:07 32° SE 01:40:52 37° E 01:44:00 10° NNE
Cosmos 1408 2.6 01:42:20 43° SSW 01:43:29 81° W 01:47:17 10° N
SeaSat 1 4.2 01:42:52 15° WSW 01:44:08 17° WSW 01:47:18 10° WNW
CZ-4B R/B 3.5 01:44:49 16° WSW 01:45:19 16° W 01:47:30 10° NW
RESURS DK-1 2.8 01:44:25 35° SSE 01:45:40 47° ESE 01:49:41 10° NE
Meteor 1-27 Rocket 4.3 01:42:28 10° NNW 01:48:00 46° W 01:50:51 26° SSW
CENTAUR R/B 3.3 01:44:48 10° NW 01:52:25 70° NE 02:00:37 10° SE
Coronas F rocket 3.9 01:52:54 12° W 01:53:35 13° WNW 01:54:54 10° NW
Cosmos 2151 Rocket 4.3 01:52:07 26° SSE 01:54:11 45° E 01:58:28 10° NNE
Cosmos 1378 Rocket 4.5 01:50:45 10° NNW 01:54:44 35° W 01:56:16 27° SW
USA 234 3.5 01:49:56 10° ESE 01:56:27 74° NNE 02:03:00 10° NW
Cosmos 1624 Rocket 4.3 01:56:25 28° S 01:58:57 55° ESE 02:04:05 10° NNE
Cosmos 1862 4.0 01:57:35 29° SW 01:59:11 46° WNW 02:03:06 10° N
CZ-4C R/B 3.7 01:54:27 10° NW 02:00:37 33° WSW 02:03:53 23° SSW
Cosmos 1867 4.3 01:59:42 10° NW 02:04:41 36° WSW 02:06:37 28° SSW
Meteor 1-14 Rocket 4.4 02:04:49 26° S 02:08:17 74° E 02:14:08 10° NNE
NOSS 3-2 (C) 4.4 02:01:32 10° NW 02:08:26 42° WSW 02:12:50 23° S
Cosmos 1825 3.0 02:07:09 28° SW 02:08:35 41° WNW 02:12:13 10° N
CZ-2C R/B 3.6 02:09:51 27° SSW 02:12:49 52° W 02:18:13 10° NNW
Cosmos 1242 Rocket 2.4 02:09:28 10° NNW 02:12:58 70° W 02:14:02 41° S
PSLV R/B 4.3 02:13:07 33° SSW 02:14:31 48° W 02:18:29 10° NNW
Cosmos 1812 3.2 02:16:25 10° N 02:20:17 57° ENE 02:22:33 23° SSE
Meteor 2-19 Rocket 4.5 02:18:53 24° S 02:22:48 79° E 02:29:00 10° NNE
GP-B 4.4 02:18:52 10° NNE 02:22:58 34° E 02:26:16 14° SE
Meteor 1-18 Rocket 4.2 02:21:50 10° NNW 02:27:31 83° W 02:31:27 21° S
Okean 2 Rocket 4.1 02:30:23 22° SW 02:32:45 37° WNW 02:36:56 10° N
Cosmos 1140 Rocket 4.1 02:28:05 10° NNW 02:33:09 55° ENE 02:38:11 10° SE
NOSS 3-4 (A) 3.9 02:29:15 15° WSW 02:34:45 66° NW 02:41:27 10° NE
NOSS 3-4 (C) 3.8 02:29:22 15° SW 02:34:51 67° NW 02:41:32 10° NE
Cosmos 1844 Rocket 3.5 02:31:31 20° SSE 02:35:01 42° ESE 02:40:20 10° NE
Abrixas rocket 2.3 02:37:26 33° SW 02:38:42 58° SSE 02:42:01 10° E
Cosmos 2263 Rocket 2.8 02:34:50 18° SW 02:39:01 52° NW 02:44:35 10° NNE
Meteor 1-20 Rocket 4.5 02:35:13 21° S 02:39:11 69° E 02:44:55 10° NNE
Gbstr 26 Del rocket 3.9 02:38:36 25° SSE 02:39:32 28° SE 02:42:49 10° E
COSMOS 2487 3.7 02:36:06 10° N 02:39:34 41° ENE 02:43:01 10° SE
Cosmos 1190 Rocket 4.4 02:36:19 10° NNW 02:41:18 45° WSW 02:44:05 24° SSW
Cosmos 1300 Rocket 3.8 02:43:56 23° S 02:46:34 65° E 02:50:56 10° NNE
SL-16 R/B 4.0 02:41:24 10° SE 02:46:57 35° ENE 02:52:30 10° N
ATLAS 5 CENTAUR R/B 2.6 02:44:08 10° NW 02:49:59 72° NE 02:56:19 10° SE
CZ-2C R/B 4.0 02:46:28 10° N 02:50:50 28° WNW 02:54:39 12° WSW
SL-08 R/B 3.5 02:47:12 14° SSE 02:51:30 78° ENE 02:56:23 10° NNW
Cosmos 1844 4.5 02:48:59 18° S 02:52:56 44° ESE 02:58:23 10° NE
Cosmos 407 Rocket 3.9 02:48:59 10° NW 02:53:53 44° WSW 02:56:53 22° SSW
USA 161 3.8 02:52:38 10° SE 02:55:05 24° ENE 02:57:35 10° NNE
Cosmos 1536 Rocket 4.4 02:52:42 10° NNW 02:56:44 36° W 02:58:52 22° SW
Cosmos 2056 Rocket 3.9 02:53:32 20° SW 02:57:05 58° WNW 03:02:15 10° NNE
Meteor 1-13 Rocket 4.3 02:51:28 10° N 02:57:11 81° ENE 03:02:46 11° SSE
Cosmos 1850 Rocket 4.3 02:52:44 10° NNW 02:57:58 68° ENE 03:03:12 10° SSE
AQUA 4.4 02:55:02 10° NNE 02:59:43 53° E 03:03:20 16° S
Okean 1 3.4 02:55:50 10° NNW 02:59:47 60° W 03:02:05 23° SSW
SL-27 R/B 3.4 02:57:43 10° NW 03:01:02 32° WSW 03:02:18 25° SW
Cosmos 1741 Rocket 4.3 02:56:23 10° NNW 03:01:42 70° ENE 03:06:56 10° SSE
Cosmos 2278 Rocket 3.2 03:00:30 14° S 03:04:54 37° ESE 03:10:05 10° NE
Cosmos 676 Rocket 4.3 03:00:46 10° NNW 03:05:43 46° WSW 03:09:11 18° S
Cosmos 1461 4.3 03:03:07 17° S 03:06:05 33° ESE 03:10:13 10° NE
COSMOS 2406 4.0 03:02:14 10° NW 03:07:25 35° WSW 03:10:50 19° SSW
Landsat 4 4.4 03:11:47 23° SSW 03:13:37 37° W 03:17:12 10° NNW
Iridium 4 Rocket 4.3 03:09:25 10° NNW 03:13:42 35° W 03:16:50 18° SW
Cosmos 1602 4.0 03:13:45 17° S 03:16:36 62° E 03:20:25 10° NNE
Cosmos 2082 Rocket 3.2 03:13:38 10° NNW 03:19:13 50° NE 03:24:46 10° SE
TIMED 4.5 03:16:51 20° SSW 03:19:52 87° ESE 03:24:17 10° NNE
NOSS 2-2 (E) 4.1 03:17:59 19° SSW 03:20:56 55° SE 03:25:59 10° NE
RESURS DK-1 4.2 03:20:32 10° WSW 03:23:58 24° NW 03:27:25 10° N
Cosmos 614 Rocket 3.9 03:19:45 10° NNW 03:24:58 88° WSW 03:30:06 10° SSE
BREEZE-M TANK 4.1 03:32:57 10° SSE 03:32:57 10° SSE 03:28:39 - W
NPP 3.7 03:26:09 10° NNE 03:31:33 74° WNW 03:36:04 15° SSW
BREEZE-M DEB (TANK) 3.9 03:15:18 10° W 03:32:46 89° NNE 03:36:53 10° E
Okean 1 Rocket 3.5 03:30:43 17° SW 03:33:55 49° WNW 03:38:18 10° N
ERS-2 2.1 03:31:07 10° NNE 03:34:51 77° WNW 03:37:42 16° SSW
Meteor 2-4 Rocket 3.6 03:30:08 10° NNW 03:35:34 88° E 03:40:56 10° S
Cosmos 1315 Rocket 4.4 03:32:08 10° SSE 03:35:44 32° E 03:39:19 10° NNE
CBERS 1 LM4 rocket 4.4 03:31:05 10° NNE 03:36:02 83° ESE 03:40:19 13° SSW
Okean 1-7 Rocket 4.5 03:31:53 10° NNW 03:36:03 35° W 03:39:15 15° SSW
SAR-Lupe-3 4.5 03:33:40 11° S 03:37:02 72° WSW 03:40:36 10° NNW
USA 234 3.5 03:33:32 10° SSE 03:39:45 46° SW 03:46:00 10° WNW
Cosmos 1934 Rocket 4.1 03:37:12 13° SSW 03:42:42 69° W 03:48:50 10° N
Cosmos 1025 Rocket 3.2 03:38:34 10° NNW 03:42:48 57° W 03:46:53 11° S
CENTAUR R/B 3.6 03:35:52 10° NW 03:42:56 39° WSW 03:50:23 10° S
CZ-2D R/B 3.1 03:39:39 10° NNE 03:44:54 45° E 03:50:07 10° S
BREEZE-M DEB (TANK) 4.0 03:41:36 10° W 03:45:58 80° SSW 04:04:27 10° ESE
Cosmos 1174 3.4 03:43:03 10° NW 03:47:01 90° NNW 03:50:16 10° SE
ERBS 4.3 03:45:46 10° NW 03:48:58 33° NNE 03:52:08 10° E
Okean O Rocket 3.9 03:47:37 10° NE 03:50:50 20° E 03:54:01 10° SE
UNKNOWN OBJECT B 4.4 03:48:31 10° NNE 03:52:14 32° E 03:55:55 10° SSE
Cosmos 1455 Rocket 3.5 03:51:18 10° S 03:55:41 62° E 04:00:06 10° NNE
UNK 3.8 03:51:29 10° SSE 03:56:08 87° ENE 04:00:49 10° NNW
Cosmos 1833 Rocket 3.0 03:51:16 10° NNW 03:56:54 71° ENE 04:02:31 10° SE
ARIANE 5 R/B 2.6 03:52:57 10° NNE 03:57:59 74° ESE 04:02:59 10° S
GP-B 4.3 03:56:24 10° NNW 04:00:10 27° WNW 04:03:43 11° SW
SME Rocket 3.1 03:56:30 10° SSE 04:00:18 88° WSW 04:05:07 10° NNW
Timation 2 Rocket 4.0 03:54:31 10° NW 04:00:33 56° WSW 04:06:22 10° S
Cosmos 1356 3.5 03:58:01 11° SSW 04:01:25 81° WNW 04:05:00 10° N
IRS-1C 4.4 03:56:50 10° N 04:02:06 59° WNW 04:07:18 10° SSW
Okean 2 3.4 03:58:22 10° NNW 04:02:28 68° W 04:06:33 10° S
Cosmos 1536 3.1 03:59:10 12° SSW 04:02:54 56° WNW 04:06:55 10° N
Cosmos 1452 Rocket 4.4 03:58:07 10° SW 04:02:56 38° WNW 04:07:52 10° NNE
Cosmos 1420 Rocket 4.3 04:05:47 11° SW 04:10:53 57° WNW 04:16:07 10° NNE
DNEPR-1 R/B 4.2 04:05:08 10° NW 04:11:13 83° NE 04:16:06 10° SE
COSMOS 2487 4.3 04:12:30 10° WNW 04:14:54 17° W 04:17:16 10° SW
Abrixas rocket 2.2 04:12:20 10° W 04:15:43 77° S 04:19:04 10° E
EO 1 Del DPAF 3.4 04:12:01 10° S 04:15:51 55° W 04:19:41 10° NNW
Resurs 1-4 Rocket 2.2 04:13:12 10° NNE 04:18:34 83° ESE 04:23:52 10° SSW
USA 129 3.2 04:16:39 10° SE 04:18:34 36° ENE 04:20:23 10° N
USA 229 DEB 4.2 04:11:44 10° NW 04:18:50 70° NE 04:26:00 10° SE
USA 229 4.2 04:11:50 10° NW 04:18:56 70° NE 04:26:05 10° SE
Cosmos 1844 Rocket 3.6 04:13:40 10° WSW 04:18:58 39° NW 04:24:17 10° NNE
Cosmos 1544 Rocket 3.8 04:17:22 10° SSW 04:21:42 54° WNW 04:26:01 10° N
Cosmos 1633 3.4 04:19:11 10° SW 04:22:33 36° WNW 04:25:58 10° N
Cosmos 1605 Rocket 4.4 04:16:55 10° SSW 04:22:55 50° WNW 04:29:05 10° N
Cosmos 2263 Rocket 4.5 04:21:10 10° WNW 04:24:21 15° NNW 04:27:32 10° N
ADEOS 4.2 04:20:12 10° N 04:25:10 44° WNW 04:30:06 10° SW
USA 161 3.2 04:23:20 10° SW 04:25:28 18° W 04:27:41 10° NW
Gbstr 26 Del rocket 2.7 04:22:11 10° WSW 04:26:06 83° NNW 04:29:51 10° ENE
Thor Agena Rocket 4.2 04:22:54 10° SSE 04:27:58 60° ENE 04:32:59 10° N
SL-16 R/B 2.8 04:24:24 10° S 04:30:25 50° W 04:36:28 10° NNW
Cosmos 2016 Rocket 4.4 04:27:04 10° S 04:33:17 67° E 04:39:28 10° NNE
